ZQ-2E R/B, 69095

Orbit data source: Space-Track

ZQ-2E R/B, 69095 is space debris in LEO originally from a launch on Wed, 13 May 2026 UTC via a ZHUQUE-2E launch vehicle from the Jiuquan Satellite Launch Center, China (JSC). Debris objects in space refer to the collection of defunct objects orbiting the Earth. Examples of debris include non-operational satellites, rocket bodies, and fragments generated from explosions, collisions, or faulty payload assembly.

Loading next visibility...
Identifier
69095, 2026-105A
Orbit
LEO
Country
Flag of CNCN / PRC
Related business
Flag of CNLandspace (CN)
Manufacturer
Lanjian Hangtian
Mission
Operational spacecraft
Bus & Motor
ZQ-2 ST 2, Unknown motor
Mass
~5,000 kg wet, ~5,000 kg dry
Launch date (UTC)
2026-05-13 (1 month ago)
Launch vehicle
ZHUQUE-2E
Launch site
Jiuquan Satellite Launch Center, China (JSC)
Object type
Payload
Rocket body
Debris
Shape & HBR
Unknown shape, 8.0 m
Radar Cross Section
Large (>1 m²)

Expand to show TLE details & history
Last TLE update: 12 hours ago

TLE from 12 hours ago
0 ZQ-2E R/B
1 69095U 26105A   26168.59513014  .00096306 -57633-6  23476-3 0  9994
2 69095  88.9689 194.2117 0446413 296.8149  58.8097 15.17404330  5218
Epoch: 2026-06-17T14:16Z
TLE epoch observation values (Epoch: 2026-06-17T14:16:59.244Z)
Latitude
0.00003°
Longitude
74.11429°
Altitude
367.926 km
Speed
7.771 km/s
True Right ascension
12h 56m 50s
True Declination
0° 00' 00"
Sunlit
Object was in daylight at epoch
Visualization orbit readout
Latitude
Unknown
Longitude
Unknown
Altitude
Unknown
Speed
Unknown
Apparent Right ascension
Unknown
Apparent Declination
Unknown
Sunlit
N/A
Visualization observer readout
Local Sidereal Time
12:33:28
Azimuth
Unknown
Elevation
Unknown
Doppler factor
Unknown
Orbital elements
Apogee altitude
818.01 km
Perigee altitude
202.975 km
Semi-major axis
6,888.63 km
Eccentricity
0.04464
Inclination
88.9689°
RAAN
194.2117°
Arg. of periapsis
296.8149°
True anomaly
63.31119°
Mean anomaly
58.8097°
Eccentric anomaly
61.0478°
Mean motion
3.79615 °/min
Orbital period
94.83 mins
BSTAR
0.00023476
Loading maneuver chart data...
Computing Atmospheric mass density...
Loading historical data...
Loading historical data...
Loading historical data...
Loading historical data...
Loading historical data...
Loading historical data...
Loading historical data...
Other satellites on launch #105 in the year 2026 (2026-05-13 UTC)

Documentation

Showing up to 5 results
|